Location: Piotrkow Trybunalski
(51.4000°N, 19.6830°E)
Time: 15:44:23
(UTC+01:00)

Vanguard 2 - Pass Details

Date: 13 February 2023
Orbit: 553 x 2927 km, 32.9° (Epoch: 24 March)

Event Time Altitude Azimuth Distance (km) Brightness Sun altitude
Rises 18:18:13 0° 210° (SSW) 3,969 11.7 -13.9°
Reaches altitude 10° 18:21:30 10° 193° (SSW) 3,355 11.0 -14.4°
Maximum altitude 18:27:28 20° 150° (SSE) 3,222 10.4 -15.3°
Enters shadow 18:33:21 14° 117° (ESE) 4,204 10.7 -16.2°
Drops below altitude 10° 18:35:29 10° 110° (ESE) 4,690 - -16.6°
Sets 18:41:18 0° 97° (E) 6,125 - -17.5°
